Track COSMOS 2485 (GLONASS) now! COSMOS 2485 (GLONASS) is classified as:
1 39155U 13019A 25182.37461250 -.00000037 00000-0 00000-0 0 9994 2 39155 65.2234 85.3952 0022602 233.3815 126.4483 2.13104678 94807